806  
ASUS41 KOKX 290908  
RWROKX  
 
REGIONAL WEATHER ROUNDUP  
NATIONAL WEATHER SERVICE NEW YORK NY  
500 AM EDT SAT APR 29 2017  
 
NOTE: "FAIR" INDICATES FEW OR NO CLOUDS BELOW 12,000 FEET WITH NO  
SIGNIFICANT WEATHER AND/OR S TO VISIBILITY
.  
 
NYZ071-072-176-178-NJZ106-104-291000-  
NEW YORK CITY METRO AREA  
 
CITY SKY/WX TMP DP RH WIND PRES REMARKS
 
CENTRAL PARK LGT RAIN 67 60 78 CALM 30.01F  
WALL ST HELIPT TSTM 66 59 78 VRB3 30.00F  
BRONX BOT GARD N/A 66 59 77 SE2 29.98F  
LAGUARDIA APRT LGT RAIN 69 61 75 CALM 29.98F  
KENNEDY INTL CLOUDY 63 59 87 SE6 30.00F  
BREEZY POINT N/A 57 N/A N/A E7 N/A  
NEWARK/LIBERTY TSTM 67 59 75 CALM 29.99F  
TETERBORO TSTM 65 60 84 S3 29.97F  

 
 
NYZ177-179-078>081-291000-  
LONG ISLAND NEW YORK  
 
CITY SKY/WX TMP DP RH WIND PRES REMARKS
 
JONES BEACH N/A 54 N/A N/A S9 N/A  
MATINECOCK PT N/A 68 N/A N/A CALM N/A  
FARMINGDALE MOCLDY 61 57 87 S5 30.01F  
MACARTHUR/ISP CLOUDY 61 59 93 CALM 30.00F  
SHIRLEY CLOUDY 58 58 100 S5 30.02F FOG  
MT SINAI HARB N/A N/A N/A N/A S6 N/A  
WESTHAMPTON FOG 56 55 97 SW6 30.04F VSB 1  
EAST HAMPTON MOCLDY 55 54 97 CALM 30.02F FOG  
MONTAUK N/A 54 52 93 SE5 30.05  

 
 
NYZ052-065-067-291000-  
HUDSON VALLEY  
 
CITY SKY/WX TMP DP RH WIND PRES REMARKS
 
WHITE PLAINS LGT RAIN 65 58 78 NW3 29.98F  
LARCHMONT HARB N/A 63 N/A N/A SE1 N/A  
CROTON O-T HUD N/A 61 N/A N/A NE5 N/A  
NEWBURGH MOCLDY 64 52 63 CALM 30.01F  
MONTGOMERY MOCLDY 59 52 77 N3 29.96F  
POUGHKEEPSIE CLOUDY 61 53 75 CALM 29.98F  
ALBANY CLOUDY 64 50 60 S3 29.96F  

 
 
NJZ001-105-106-008-010-013-015-019>022-104-291000-  
NEW JERSEY  
 
CITY SKY/WX TMP DP RH WIND PRES REMARKS
 
NEWARK/LIBERTY TSTM 67 59 75 CALM 29.99F  
TETERBORO TSTM 65 60 84 S3 29.97F  
CALDWELL CLOUDY 63 55 75 CALM 29.98F  
SOMERVILLE TSTM 60 58 92 VRB3 29.98S FOG  
LINDEN TSTM 66 59 78 N6 29.99F  
PERTH AMBOY N/A 66 N/A N/A N2 N/A  
SUSSEX CLOUDY 58 56 93 SW3 29.97F  
ANDOVER N/A 59 58 96 S6 29.98F  
TRENTON TSTM 64 64 100 NW6 30.00R VSB 1  
MILLVILLE CLOUDY 69 69 100 S5 30.02R FOG  
ATLANTIC CITY CLOUDY 67 65 93 S8 30.01R  
WRIGHTSTOWN TSTM 67 66 96 SW9 29.97S  
TOMS RIVER CLOUDY 69 66 90 SW9 30.00F  
BELMAR TSTM 67 65 93 SE5 29.99F FOG  

 
 
PAZ047>061-062-071-291000-  
EASTERN PENNSYLVANIA  
 
CITY SKY/WX TMP DP RH WIND PRES REMARKS
 
PHILADELPHIA CLOUDY 67 65 93 S5 29.98F  
ALLENTOWN CLOUDY 60 57 89 CALM 29.98F  
SCRANTON CLOUDY 58 55 90 NE5 29.98R  

 
 
CTZ002-004>006-009-010-012-RIZ004-006-007-MAZ004-011-015-291000-  
SOUTHERN NEW ENGLAND  
IN CT  
 
CITY SKY/WX TMP DP RH WIND PRES REMARKS
 
BRADLEY INTL CLOUDY 63 54 72 S5 29.99F  
HARTFORD CLOUDY 62 54 74 CALM 29.99F  
DANBURY CLOUDY 59 57 93 SE6 30.01F  
WTRBURY/OXFORD CLOUDY 63 46 55 CALM 30.02F  
BRIDGEPORT CLOUDY 62 52 69 SW3 30.00F  
MERIDEN CLOUDY 61 56 83 NW6 30.00F  
NEW HAVEN CLOUDY 56 52 86 S5 30.00F  
CHESTER DRIZZLE 64 54 68 CALM 30.01F  
GROTON CLOUDY 57 55 93 CALM 30.02F  
WILIMANTIC CLOUDY 62 57 83 NE3 30.02F  
 
IN RI  
 
CITY SKY/WX TMP DP RH WIND PRES REMARKS
 
PROVIDENCE CLOUDY 65 53 65 W7 30.01S  
BLOCK ISLAND CLOUDY 54 52 93 SW13 30.04S  
WESTERLY CLOUDY 57 55 93 CALM 30.03F  
IN MA  
 
CITY SKY/WX TMP DP RH WIND PRES REMARKS
 
BOSTON CLOUDY 65 56 72 SW8 29.99R  
WORCESTER CLOUDY 61 52 72 SW9 30.01F  
WESTFIELD CLOUDY 59 57 93 S5 29.98F  
PROVINCETOWN MOCLDY 54 52 93 S8 30.01R  
NANTUCKET PTCLDY 50 49 96 SW10 30.04R FOG  

 
 
ANZ330-335-338-340-345-350-353-355-291000-  
COASTAL MARINE OBSERVATIONS  
 
 
STATION/POSITION TIME SKY/WX TEMP WIND PRES VSBY WAVE
 
AIR SEA DIR/SP/G HT/PER  
(UTC) (F) (DEG/KT/KT) (MB) (MI) (FT/S)  
NY HARB ENTRANCE 0750 55 52 180/ 8/ 8 1016.9 4/ 8  
20 S FIRE ISLAND 0850 52 49 170/ 10/ 10 1016.0 4/ 8  
GREAT SOUTH BAY NOT AVBL  
23 SSW MONTAUK P 0750 49 47 1017.7 4/ 8  
15 E BARNEGAT LI 0830 54 N/A 4/ 8  
HUDSON CANYON 0750 53 49 200/ 8/ 10 1018.0 4/ 8  
KINGS POINT 0842 65 51 CALM / 2 1015.6  
EXECUTION ROCKS NOT AVBL  
CENTRAL LI SOUND 0800 57 250/ 4/ 8 N/A 1  
EASTERN LI SOUND NOT AVBL  
ROBBINS REEF 0842 66 40/ 5/ 6 1015.8  

 
 
>>>>>>>>>>>>>>>>>>>>>>>>>>>> KEY <<<<<<<<<<<<<<<<<<<<<<<<<<<  
> <  
> SKY/WX - SKY CONDITION/PRESENT WEATHER <  
> TMP - TEMPERATURE IN FAHRENHEIT <  
> DP - DEW POINT IN FAHRENHEIT <  
> RH - RELATIVE HUMIDITY IN PERCENT <  
> WIND - DIRECTION (FROM) AND SPEED IN MPH <  
> PRES - MEAN SEA LEVEL PRESSURE (INCHES OF HG) <  
> WCI - WIND CHILL INDEX <  
> VSB - VISIBILITY IN MILES <  
> HX - HEAT INDEX <  
> TC - TEMPERATURE IN CELSIUS <  
> VRB - VARIABLE WIND DIRECTION <  
> <  
>>>>>>>>>>>>>>>>>>>>>>>>>>>> KEY <<<<<<<<<<<<<<<<<<<<<<<<<<<  
 
 
CLICK HERE TO GO TO PREVIOUS BULLETINS.

The Nexlab NY Page
The Nexlab NJ Page
The Nexlab CT Page Main Text Page